SCP
-0 -0 -0 -0 -0 -0 0 0 0 0 0 0 0 0 0 0 0 0 0 0 0 0 0 0 0 0 0 0 0 0 0 0 0 0 0 0 0 -0 0 0 0 0 0
-0 -0 -0 -0 -0 -0 -0 0 0 0 0 0 0 0 0 0 0 0 0 -0 0 0 0 0 0 0 0 -0 0 0 0 0 0 0 1 0 0 0 0 0 0 0 0
-0 -0 -0 -0 0 0 0 0 0 0 0 0 0 0 0 0 0 0 0 0 0 0 0 0 0 0 0 -0 0 0 0 0 0 0 0 1 0 0 0 0 0 0 0
0 0 0 0 0 0 0 0 0 0 1 1 1 1 1 0 0 0 0 1 0 0 0 0 0 0 0 0 0 0 0 0 0 0 1 0 0 0 0 0 0 0 0
0 0 0 1 1 1 1 1 1 1 1 1 1 1 1 1 0 1 1 1 1 0 0 0 0 0 0 0 0 0 1 0 0 0 1 1 1 0 0 0 0 0 0
0 0 1 1 1 1 1 1 1 1 1 1 1 1 1 0 0 0 1 1 1 1 1 1 1 1 0 0 0 0 0 1 0 0 1 1 1 0 0 0 0 0 0
1 1 1 1 1 1 1 1 1 1 1 1 1 1 1 1 0 0 0 1 1 1 1 1 1 0 1 1 0 0 0 0 0 1 1 1 0 1 0 0 0 0 0
1 1 2 2 2 1 1 1 1 1 1 1 1 1 1 1 1 0 0 1 1 1 1 1 1 1 2 1 1 1 0 0 0 0 1 1 1 1 1 0 0 0 0
2 2 2 3 3 2 2 2 2 2 2 2 1 1 1 1 1 0 0 1 1 1 2 1 2 2 1 1 1 1 1 1 0 0 0 0 0 1 1 0 0 0 0
4 4 4 4 3 3 2 2 2 2 2 1 2 2 1 1 1 0 0 1 1 1 2 2 1 1 1 0 2 2 2 2 1 0 0 0 0 0 0 0 0 0 0
4 3 3 2 2 1 1 1 1 1 1 1 1 1 1 1 1 0 0 1 1 0 0 1 2 1 0 0 0 3 2 2 2 2 1 1 1 1 0 0 0 0 0
1 1 1 1 0 0 0 0 0 0 0 0 1 1 0 1 1 0 0 0 0 1 1 1 2 1 0 0 0 0 1 1 3 2 1 0 0 0 0 0 0 0 0
1 1 1 0 0 0 0 0 0 0 0 0 0 0 0 1 1 0 0 0 0 0 0 1 1 0 0 0 0 0 0 2 3 2 1 0 0 0 0 0 0 0 0
1 1 1 0 0 0 0 0 0 0 0 0 0 0 0 0 1 1 0 0 0 0 0 0 0 0 0 0 0 0 0 1 3 1 1 0 0 0 0 0 0 0 0
0 0 0 0 0 0 0 0 0 0 0 0 0 0 0 0 0 0 0 0 0 0 0 0 0 0 0 0 0 0 0 0 0 0 0 0 0 0 0 0 0 0 0
0 0 0 0 0 0 0 0 0 0 -0 -0 0 0 0 0 0 0 0 0 0 0 0 0 0 0 0 0 0 0 0 0 0 0 0 0 0 0 0 0 0 0 0
0 0 0 0 0 0 0 0 0 -0 -0 -0 0 0 0 0 0 0 0 0 0 0 0 0 0 0 0 0 0 0 0 0 0 0 0 0 0 0 0 0 0 0 0
0 0 0 0 0 0 0 0 0 0 0 0 -0 0 0 0 0 0 0 0 0 0 0 0 0 0 0 0 0 0 0 0 0 0 0 0 0 0 0 0 0 0 0
0 0 0 0 0 0 0 0 0 0 0 -0 -0 0 0 0 0 0 0 0 0 0 0 0 0 0 0 0 0 0 0 0 0 0 0 0 0 0 0 0 0 0 -0
0 0 0 0 0 0 0 0 0 0 0 0 -0 0 -0 0 0 0 0 0 0 0 0 0 0 0 0 0 0 0 0 0 0 0 0 0 0 0 0 -0 -0 0 0
0 0 0 0 -0 0 0 0 0 0 0 0 0 -0 -0 -0 0 0 0 0 0 0 0 -0 -0 -0 -0 -0 0 0 0 0 0 0 0 -0 -0 -0 -0 0 -0 -0 0
0 0 -0 0 0 0 0 0 0 0 0 0 0 -0 -0 -0 -0 -0 -0 -0 -0 -0 -0 -0 -0 -0 -0 -0 -0 0 0 0 0 0 -0 -0 0 0 0 0 0 0 0
-0 0 0 0 0 0 0 0 0 0 0 0 0 0 0 -0 0 0 0 0 0 -0 0 0 0 0 -0 0 0 -0 -0 0 0 0 -0 -0 0 0 0 0 0 0 0
-0 -0 0 0 0 0 0 -0 0 0 0 0 0 0 0 -0 -0 0 0 0 0 0 0 0 0 -0 -0 -0 -0 -0 -0 -0 -0 -0 -0 -0 0 0 0 0 0 0 0
0 0 0 0 0 0 0 0 0 0 0 0 0 0 0 -0 -0 -0 -0 -0 -0 -0 -0 -0 -0 -0 -0 -0 -0 -0 -0 -0 -0 -0 -0 -0 -0 -0 0 0 0 0 0
-0 -0 0 0 0 0 0 0 0 0 0 0 0 0 0 0 0 0 -0 -0 -0 0 -0 0 -0 -0 -0 -0 -0 0 0 0 0 0 0 0 0 0 0 0 0 0 0
Wind_Speed_500mb
39 40 41 41 40 40 41 39 38 38 40 36 28 29 31 30 29 30 25 27 26 22 23 21 16 20 20 17 17 18 19 21 15 11 15 20 30 33 27 24 18 16 7
37 41 40 41 41 40 41 41 38 40 39 40 37 32 31 31 32 32 30 29 30 27 26 27 26 20 28 28 17 18 21 16 25 22 16 18 24 25 26 26 31 22 15
37 37 38 38 38 39 39 39 39 43 43 40 43 44 40 37 36 34 32 33 34 34 31 31 29 27 34 28 26 22 22 24 22 17 26 21 20 20 24 32 33 28 23
40 39 40 43 43 39 39 41 39 40 45 44 45 47 48 47 45 43 39 38 35 33 35 33 33 32 33 29 33 33 25 22 17 18 21 22 25 29 34 32 31 31 27
45 45 44 43 41 41 41 40 38 39 41 44 45 47 50 50 47 48 47 43 41 40 38 37 37 35 36 35 30 31 32 28 27 26 23 30 34 35 36 36 34 30 31
42 41 42 43 42 43 42 42 41 43 44 45 46 47 46 48 48 50 52 49 47 45 42 39 41 39 46 44 40 39 37 35 37 35 21 30 32 35 32 37 41 37 35
38 36 34 35 35 35 35 35 36 36 35 41 47 51 54 52 49 57 51 55 49 48 47 47 42 40 43 39 43 42 41 42 41 35 36 35 30 35 35 35 40 34 38
38 35 30 32 28 28 31 32 32 31 35 39 43 49 53 53 54 56 51 56 61 63 54 48 49 48 43 41 37 39 45 46 46 44 40 38 27 34 36 32 29 40 45
28 25 24 23 22 24 27 29 35 36 42 45 45 48 51 54 53 55 56 54 56 64 66 67 59 53 52 52 51 46 40 40 44 36 39 38 37 37 30 38 34 38 46
25 25 23 26 26 23 25 34 40 41 45 43 49 51 48 51 48 49 55 49 43 50 57 62 61 67 62 56 56 55 52 44 41 39 41 40 42 42 40 36 36 38 45
20 20 19 22 27 32 38 41 42 45 44 46 43 42 52 54 52 53 55 51 48 48 50 50 59 58 60 64 59 53 54 46 46 41 27 35 37 41 42 41 40 37 38
16 13 18 23 28 28 36 36 36 38 35 38 39 41 39 43 46 51 56 57 51 47 54 53 61 58 60 52 57 56 54 50 52 43 43 40 41 44 41 44 45 43 37
11 14 17 21 24 26 26 28 30 33 34 37 39 43 38 34 37 43 54 57 51 53 60 52 59 60 58 54 51 58 54 53 55 54 51 50 46 42 40 41 39 40 38
9 8 7 7 6 10 10 18 25 27 29 36 40 37 36 39 41 39 44 47 50 51 56 59 60 54 50 56 57 57 55 55 56 59 59 68 49 40 41 40 39 39 36
11 9 7 6 8 10 16 23 28 35 36 32 35 40 44 41 36 38 38 39 40 40 44 50 56 59 56 58 62 64 71 64 60 70 68 63 54 47 47 44 38 40 44
12 7 8 3 5 9 13 23 37 36 44 34 31 32 37 40 40 40 37 37 37 39 44 53 56 58 57 55 56 56 58 61 59 63 65 66 57 55 56 52 47 34 35
11 10 8 4 8 10 14 13 17 27 38 40 34 29 26 31 36 36 37 36 38 40 46 46 47 50 56 52 54 55 56 62 65 65 67 57 58 66 65 54 48 42 32
13 19 10 13 12 13 11 10 10 15 22 38 42 28 22 10 14 19 22 22 23 23 26 30 34 38 41 43 47 53 57 62 57 57 61 66 66 58 48 46 39 37 33
16 16 11 14 11 10 6 11 5 8 14 28 31 36 45 35 25 24 13 4 7 11 12 15 12 9 11 15 22 29 32 37 45 55 58 53 47 45 40 39 39 34 42
17 17 14 8 6 7 9 11 12 9 6 15 26 25 31 37 47 45 40 42 44 42 37 27 24 20 19 26 29 33 44 49 51 46 42 44 41 39 36 36 35 42 40
10 10 12 9 10 7 9 11 10 8 10 3 17 21 24 26 32 33 36 27 25 26 33 36 34 37 41 41 38 38 39 40 36 32 42 38 33 35 34 33 39 46 46
15 7 9 10 14 9 9 9 7 8 8 7 15 12 13 15 15 17 24 19 20 14 9 15 20 22 22 24 26 27 29 32 36 37 38 44 41 40 41 40 38 42 43
14 24 10 15 9 12 11 12 10 10 9 9 9 11 8 3 1 4 7 4 5 5 5 9 9 12 12 12 12 19 23 28 35 33 38 41 41 35 38 38 40 41 41
21 15 12 11 10 12 16 17 10 11 12 9 11 13 12 9 7 7 6 5 5 5 7 9 13 12 13 18 25 26 25 25 28 33 35 39 39 37 35 39 39 40 40
19 17 15 19 16 12 9 10 12 12 11 10 9 11 10 17 14 12 10 9 11 9 12 12 14 15 21 24 21 22 27 29 28 30 34 34 35 37 38 38 37 38 41
18 20 19 18 18 16 14 13 14 15 15 13 13 13 12 13 14 15 15 15 13 13 12 16 17 19 19 23 28 29 31 36 34 35 36 36 36 39 39 42 42 42 45
Wind_Direction_500mb
199 205 208 213 219 222 223 227 232 232 229 237 235 239 237 243 234 238 239 239 244 242 227 243 237 243 249 253 245 237 244 240 231 215 187 208 213 233 229 227 230 244 288
203 202 209 212 214 221 225 226 231 239 238 240 236 237 240 238 243 252 241 244 257 248 238 237 242 246 261 245 243 240 232 243 225 223 231 243 206 229 234 225 236 248 256
207 209 209 215 217 220 227 233 229 236 242 238 243 237 236 238 243 243 247 246 242 244 240 241 247 242 245 226 235 241 238 246 251 242 240 222 224 220 214 228 238 240 247
210 212 216 220 223 224 229 230 236 235 239 242 242 246 245 244 243 241 239 244 237 236 240 240 244 237 255 253 236 232 235 230 225 244 239 226 238 229 231 239 242 236 238
208 214 219 227 232 232 229 231 236 236 241 244 242 244 246 245 245 246 239 235 238 234 236 238 240 235 241 244 235 234 224 230 227 236 238 238 236 245 235 236 238 241 236
212 216 220 227 231 235 239 240 238 239 242 241 242 244 244 243 245 245 246 235 234 239 239 232 232 241 243 240 243 240 240 239 235 234 234 244 243 253 249 241 236 229 225
215 216 220 232 235 238 240 241 244 247 245 248 250 246 247 247 242 242 249 244 230 241 243 234 229 239 253 255 242 242 243 241 243 244 243 251 248 253 250 245 244 238 235
214 214 221 226 233 240 239 244 248 252 254 254 256 251 253 250 252 252 250 247 243 235 240 242 242 231 235 245 238 249 241 243 246 248 252 246 247 255 249 253 243 228 227
201 206 214 218 231 240 244 245 247 250 254 255 256 255 253 254 248 248 254 247 247 245 241 241 242 242 239 240 243 241 235 234 238 242 237 245 237 241 236 235 227 220 219
193 203 209 220 230 243 253 263 265 267 267 263 257 257 257 253 254 248 250 245 241 244 247 246 247 244 246 245 240 244 239 232 236 250 238 243 242 241 238 240 238 225 221
192 207 227 245 258 266 270 271 274 269 272 268 258 265 263 259 253 251 254 252 242 248 250 252 251 253 248 244 243 244 246 237 234 237 238 231 230 233 223 225 237 239 229
204 228 257 265 270 266 278 281 279 279 275 280 270 267 266 271 261 256 256 259 255 246 237 245 256 260 247 247 248 244 247 242 240 231 230 241 234 235 227 222 225 228 233
224 251 268 283 288 294 301 300 297 288 280 270 270 274 269 260 257 256 259 259 256 250 241 242 253 259 249 241 242 243 238 238 239 229 229 235 241 232 224 221 224 215 225
227 250 273 292 337 10 10 348 341 322 294 279 277 274 279 272 263 258 261 259 254 250 247 244 235 241 234 238 238 239 235 234 232 226 221 230 240 227 220 223 232 206 188
160 151 131 116 86 21 10 12 9 358 341 307 282 271 269 273 271 267 261 257 253 252 249 246 241 240 244 245 241 239 243 241 242 232 222 228 229 222 204 190 185 183 171
164 159 185 217 334 333 352 337 343 350 355 340 319 288 264 261 263 264 266 259 254 248 245 241 242 249 251 248 242 241 240 239 241 235 230 233 222 193 174 165 156 153 161
189 201 224 224 276 298 312 330 344 350 4 9 354 322 289 272 271 269 263 260 254 248 246 248 251 248 239 238 245 243 245 244 231 223 226 212 195 178 168 153 150 148 163
207 223 227 260 288 284 295 321 339 3 6 15 22 15 23 344 274 261 246 240 238 233 236 245 251 251 250 250 249 243 235 230 218 199 189 178 164 153 145 142 142 150 153
223 222 241 259 274 275 276 291 320 4 5 19 34 35 40 42 54 66 74 134 200 207 212 218 216 210 219 231 237 232 223 202 186 168 156 153 147 148 149 152 155 166 176
230 215 215 265 244 289 283 290 250 302 340 11 32 52 47 51 45 52 68 68 70 75 78 90 106 114 132 135 137 143 150 151 151 155 158 158 156 153 156 161 165 181 182
203 227 230 232 243 266 288 289 289 312 347 294 3 27 60 52 42 39 31 46 63 64 73 81 103 111 120 127 130 134 135 137 143 154 161 157 157 159 170 181 184 190 187
226 245 186 243 219 255 270 282 307 295 304 293 310 349 23 40 43 30 22 16 31 46 87 115 117 119 126 138 156 166 166 167 169 170 171 166 171 184 182 193 199 196 195
223 218 210 246 238 268 274 270 290 295 284 278 268 269 312 308 264 35 48 8 145 145 180 142 172 165 175 184 186 188 187 190 187 185 184 186 191 191 193 195 199 196 203
235 235 230 258 235 279 258 268 297 279 259 280 268 262 261 241 263 248 202 231 223 210 206 191 187 197 218 218 219 217 214 214 214 204 205 210 202 194 205 203 208 210 212
241 231 243 247 240 253 251 262 257 264 277 282 279 280 273 242 248 252 259 261 268 225 242 231 225 228 222 216 217 217 225 224 215 209 205 210 209 210 208 213 214 218 218
235 240 240 242 244 254 254 260 265 264 264 268 272 273 269 260 256 254 255 256 261 259 248 238 234 232 233 233 229 224 227 237 242 218 210 217 217 216 219 221 224 225 224
Wind_Speed_850mb
39 40 41 41 40 40 41 39 38 38 40 36 28 29 31 30 29 30 25 27 26 22 23 21 16 20 20 17 17 18 19 21 15 11 15 20 30 33 27 24 18 16 7
37 41 40 41 41 40 41 41 38 40 39 40 37 32 31 31 32 32 30 29 30 27 26 27 26 20 28 28 17 18 21 16 25 22 16 18 24 25 26 26 31 22 15
37 37 38 38 38 39 39 39 39 43 43 40 43 44 40 37 36 34 32 33 34 34 31 31 29 27 34 28 26 22 22 24 22 17 26 21 20 20 24 32 33 28 23
40 39 40 43 43 39 39 41 39 40 45 44 45 47 48 47 45 43 39 38 35 33 35 33 33 32 33 29 33 33 25 22 17 18 21 22 25 29 34 32 31 31 27
45 45 44 43 41 41 41 40 38 39 41 44 45 47 50 50 47 48 47 43 41 40 38 37 37 35 36 35 30 31 32 28 27 26 23 30 34 35 36 36 34 30 31
42 41 42 43 42 43 42 42 41 43 44 45 46 47 46 48 48 50 52 49 47 45 42 39 41 39 46 44 40 39 37 35 37 35 21 30 32 35 32 37 41 37 35
38 36 34 35 35 35 35 35 36 36 35 41 47 51 54 52 49 57 51 55 49 48 47 47 42 40 43 39 43 42 41 42 41 35 36 35 30 35 35 35 40 34 38
38 35 30 32 28 28 31 32 32 31 35 39 43 49 53 53 54 56 51 56 61 63 54 48 49 48 43 41 37 39 45 46 46 44 40 38 27 34 36 32 29 40 45
28 25 24 23 22 24 27 29 35 36 42 45 45 48 51 54 53 55 56 54 56 64 66 67 59 53 52 52 51 46 40 40 44 36 39 38 37 37 30 38 34 38 46
25 25 23 26 26 23 25 34 40 41 45 43 49 51 48 51 48 49 55 49 43 50 57 62 61 67 62 56 56 55 52 44 41 39 41 40 42 42 40 36 36 38 45
20 20 19 22 27 32 38 41 42 45 44 46 43 42 52 54 52 53 55 51 48 48 50 50 59 58 60 64 59 53 54 46 46 41 27 35 37 41 42 41 40 37 38
16 13 18 23 28 28 36 36 36 38 35 38 39 41 39 43 46 51 56 57 51 47 54 53 61 58 60 52 57 56 54 50 52 43 43 40 41 44 41 44 45 43 37
11 14 17 21 24 26 26 28 30 33 34 37 39 43 38 34 37 43 54 57 51 53 60 52 59 60 58 54 51 58 54 53 55 54 51 50 46 42 40 41 39 40 38
9 8 7 7 6 10 10 18 25 27 29 36 40 37 36 39 41 39 44 47 50 51 56 59 60 54 50 56 57 57 55 55 56 59 59 68 49 40 41 40 39 39 36
11 9 7 6 8 10 16 23 28 35 36 32 35 40 44 41 36 38 38 39 40 40 44 50 56 59 56 58 62 64 71 64 60 70 68 63 54 47 47 44 38 40 44
12 7 8 3 5 9 13 23 37 36 44 34 31 32 37 40 40 40 37 37 37 39 44 53 56 58 57 55 56 56 58 61 59 63 65 66 57 55 56 52 47 34 35
11 10 8 4 8 10 14 13 17 27 38 40 34 29 26 31 36 36 37 36 38 40 46 46 47 50 56 52 54 55 56 62 65 65 67 57 58 66 65 54 48 42 32
13 19 10 13 12 13 11 10 10 15 22 38 42 28 22 10 14 19 22 22 23 23 26 30 34 38 41 43 47 53 57 62 57 57 61 66 66 58 48 46 39 37 33
16 16 11 14 11 10 6 11 5 8 14 28 31 36 45 35 25 24 13 4 7 11 12 15 12 9 11 15 22 29 32 37 45 55 58 53 47 45 40 39 39 34 42
17 17 14 8 6 7 9 11 12 9 6 15 26 25 31 37 47 45 40 42 44 42 37 27 24 20 19 26 29 33 44 49 51 46 42 44 41 39 36 36 35 42 40
10 10 12 9 10 7 9 11 10 8 10 3 17 21 24 26 32 33 36 27 25 26 33 36 34 37 41 41 38 38 39 40 36 32 42 38 33 35 34 33 39 46 46
15 7 9 10 14 9 9 9 7 8 8 7 15 12 13 15 15 17 24 19 20 14 9 15 20 22 22 24 26 27 29 32 36 37 38 44 41 40 41 40 38 42 43
14 24 10 15 9 12 11 12 10 10 9 9 9 11 8 3 1 4 7 4 5 5 5 9 9 12 12 12 12 19 23 28 35 33 38 41 41 35 38 38 40 41 41
21 15 12 11 10 12 16 17 10 11 12 9 11 13 12 9 7 7 6 5 5 5 7 9 13 12 13 18 25 26 25 25 28 33 35 39 39 37 35 39 39 40 40
19 17 15 19 16 12 9 10 12 12 11 10 9 11 10 17 14 12 10 9 11 9 12 12 14 15 21 24 21 22 27 29 28 30 34 34 35 37 38 38 37 38 41
18 20 19 18 18 16 14 13 14 15 15 13 13 13 12 13 14 15 15 15 13 13 12 16 17 19 19 23 28 29 31 36 34 35 36 36 36 39 39 42 42 42 45
Wind_Direction_850mb
199 205 208 213 219 222 223 227 232 232 229 237 235 239 237 243 234 238 239 239 244 242 227 243 237 243 249 253 245 237 244 240 231 215 187 208 213 233 229 227 230 244 288
203 202 209 212 214 221 225 226 231 239 238 240 236 237 240 238 243 252 241 244 257 248 238 237 242 246 261 245 243 240 232 243 225 223 231 243 206 229 234 225 236 248 256
207 209 209 215 217 220 227 233 229 236 242 238 243 237 236 238 243 243 247 246 242 244 240 241 247 242 245 226 235 241 238 246 251 242 240 222 224 220 214 228 238 240 247
210 212 216 220 223 224 229 230 236 235 239 242 242 246 245 244 243 241 239 244 237 236 240 240 244 237 255 253 236 232 235 230 225 244 239 226 238 229 231 239 242 236 238
208 214 219 227 232 232 229 231 236 236 241 244 242 244 246 245 245 246 239 235 238 234 236 238 240 235 241 244 235 234 224 230 227 236 238 238 236 245 235 236 238 241 236
212 216 220 227 231 235 239 240 238 239 242 241 242 244 244 243 245 245 246 235 234 239 239 232 232 241 243 240 243 240 240 239 235 234 234 244 243 253 249 241 236 229 225
215 216 220 232 235 238 240 241 244 247 245 248 250 246 247 247 242 242 249 244 230 241 243 234 229 239 253 255 242 242 243 241 243 244 243 251 248 253 250 245 244 238 235
214 214 221 226 233 240 239 244 248 252 254 254 256 251 253 250 252 252 250 247 243 235 240 242 242 231 235 245 238 249 241 243 246 248 252 246 247 255 249 253 243 228 227
201 206 214 218 231 240 244 245 247 250 254 255 256 255 253 254 248 248 254 247 247 245 241 241 242 242 239 240 243 241 235 234 238 242 237 245 237 241 236 235 227 220 219
193 203 209 220 230 243 253 263 265 267 267 263 257 257 257 253 254 248 250 245 241 244 247 246 247 244 246 245 240 244 239 232 236 250 238 243 242 241 238 240 238 225 221
192 207 227 245 258 266 270 271 274 269 272 268 258 265 263 259 253 251 254 252 242 248 250 252 251 253 248 244 243 244 246 237 234 237 238 231 230 233 223 225 237 239 229
204 228 257 265 270 266 278 281 279 279 275 280 270 267 266 271 261 256 256 259 255 246 237 245 256 260 247 247 248 244 247 242 240 231 230 241 234 235 227 222 225 228 233
224 251 268 283 288 294 301 300 297 288 280 270 270 274 269 260 257 256 259 259 256 250 241 242 253 259 249 241 242 243 238 238 239 229 229 235 241 232 224 221 224 215 225
227 250 273 292 337 10 10 348 341 322 294 279 277 274 279 272 263 258 261 259 254 250 247 244 235 241 234 238 238 239 235 234 232 226 221 230 240 227 220 223 232 206 188
160 151 131 116 86 21 10 12 9 358 341 307 282 271 269 273 271 267 261 257 253 252 249 246 241 240 244 245 241 239 243 241 242 232 222 228 229 222 204 190 185 183 171
164 159 185 217 334 333 352 337 343 350 355 340 319 288 264 261 263 264 266 259 254 248 245 241 242 249 251 248 242 241 240 239 241 235 230 233 222 193 174 165 156 153 161
189 201 224 224 276 298 312 330 344 350 4 9 354 322 289 272 271 269 263 260 254 248 246 248 251 248 239 238 245 243 245 244 231 223 226 212 195 178 168 153 150 148 163
207 223 227 260 288 284 295 321 339 3 6 15 22 15 23 344 274 261 246 240 238 233 236 245 251 251 250 250 249 243 235 230 218 199 189 178 164 153 145 142 142 150 153
223 222 241 259 274 275 276 291 320 4 5 19 34 35 40 42 54 66 74 134 200 207 212 218 216 210 219 231 237 232 223 202 186 168 156 153 147 148 149 152 155 166 176
230 215 215 265 244 289 283 290 250 302 340 11 32 52 47 51 45 52 68 68 70 75 78 90 106 114 132 135 137 143 150 151 151 155 158 158 156 153 156 161 165 181 182
203 227 230 232 243 266 288 289 289 312 347 294 3 27 60 52 42 39 31 46 63 64 73 81 103 111 120 127 130 134 135 137 143 154 161 157 157 159 170 181 184 190 187
226 245 186 243 219 255 270 282 307 295 304 293 310 349 23 40 43 30 22 16 31 46 87 115 117 119 126 138 156 166 166 167 169 170 171 166 171 184 182 193 199 196 195
223 218 210 246 238 268 274 270 290 295 284 278 268 269 312 308 264 35 48 8 145 145 180 142 172 165 175 184 186 188 187 190 187 185 184 186 191 191 193 195 199 196 203
235 235 230 258 235 279 258 268 297 279 259 280 268 262 261 241 263 248 202 231 223 210 206 191 187 197 218 218 219 217 214 214 214 204 205 210 202 194 205 203 208 210 212
241 231 243 247 240 253 251 262 257 264 277 282 279 280 273 242 248 252 259 261 268 225 242 231 225 228 222 216 217 217 225 224 215 209 205 210 209 210 208 213 214 218 218
235 240 240 242 244 254 254 260 265 264 264 268 272 273 269 260 256 254 255 256 261 259 248 238 234 232 233 233 229 224 227 237 242 218 210 217 217 216 219 221 224 225 224